Regional Weather Roundup
Issued by NWS

Home | Current Version | Previous Version | Graphics & Text | Print | Product List | Glossary On
Versions: 1 2 3 4 5 6 7 8 9 10 11 12 13 14 15 16 17 18 19 20 21 22 23 24 25 26 27 28 29 30 31 32 33 34 35 36 37 38 39 40 41 42 43 44 45 46 47 48 49 50
000
ASUS43 KBIS 232102
RWRND

NORTH DAKOTA REGIONAL WEATHER ROUNDUP
NATIONAL WEATHER SERVICE BISMARCK ND
400 PM CDT FRI JUN 23 2017

NOTE: "FAIR" INDICATES FEW OR NO CLOUDS BELOW 12,000 FEET WITH NO
SIGNIFICANT WEATHER AND/OR OBSTRUCTIONS TO VISIBILITY.


NDZ001>003-009>011-017-232200-
NORTHWEST NORTH DAKOTA

CITY           SKY/WX    TMP DP  RH WIND       PRES   REMARKS
WILLISTON      PTSUNNY   68  32  26 NW15G29   30.12S
MINOT          PTSUNNY   62  37  39 NW25G37   30.04S
MINOT AFB      CLOUDY    61  36  39 NW26G37   30.03R
$$

NDZ018>021-031>035-040>046-232200-
SOUTHWEST NORTH DAKOTA

CITY           SKY/WX    TMP DP  RH WIND       PRES   REMARKS
BISMARCK       PTSUNNY   67  36  31 NW28G35   30.05S
DICKINSON      PTSUNNY   63  29  27 NW25G36   30.10S
GARRISON         N/A     63  36  36 NW28G41   30.05R
HETTINGER ARPT SUNNY     66  29  24 NW28G36   30.13F
$$

NDZ004>008-012>016-024-026-027-054-232200-
NORTHEAST NORTH DAKOTA

CITY           SKY/WX    TMP DP  RH WIND       PRES   REMARKS
GRAND FORKS    PTSUNNY   65  43  44 NW21G29   29.89S
GRND FRKS AFB  PTSUNNY   64  41  42 NW18G26   29.90S
DEVILS LAKE    CLOUDY    61  40  45 NW23G30   29.96R
$$

NDZ022-023-025-028>030-036>039-047>053-232200-
SOUTHEAST NORTH DAKOTA

CITY           SKY/WX    TMP DP  RH WIND       PRES   REMARKS
FARGO          CLOUDY    65  46  50 NW16G28   29.91S
JAMESTOWN      PTSUNNY   65  39  38 NW24G35   29.97R
$$





USA.gov is the U.S. government's official web portal to all federal, state and local government web resources and services.